Weather History for West Yellowstone, MT

Change the Weather History Date:

Friday, June 14, 2013

  Actual Average Record
Temperature  
Mean Temperature 40 °F -  
Max Temperature 48 °F 66 °F 60 °F (2011)
Min Temperature 32 °F 36 °F 32 °F (2011)
Degree Days  
Heating Degree Days 25    
Moisture  
Dew Point 35 °F    
Average Humidity 84    
Maximum Humidity 87    
Minimum Humidity 80    
Precipitation  
Precipitation 0.04 in - - ()
Sea Level Pressure  
Sea Level Pressure 30.18 in    
Wind  
Wind Speed 7 mph (SW)    
Max Wind Speed 21 mph    
Max Gust Speed 30 mph    
Visibility 10 miles    
Events Rain    
Averages and records for this station are not official NWS values.
T = Trace of Precipitation, MM = Missing Value Source: NWS Daily Summary

Daily Weather History Graph

Daily Weather History Graph

Search for Another Location

Airport:

Trip Planner

Search our weather history database for the weather conditions in past years. The results will help you decide how hot, cold, wet, or windy it might be!

Date:

Astronomy

Jun. 14, 2013 Rise Set
Actual Time 5:38 AM MDT 9:11 PM MDT
Civil Twilight 5:01 AM MDT 9:48 PM MDT
Nautical Twilight 4:12 AM MDT 10:37 PM MDT
Astronomical Twilight 3:08 AM MDT 11:41 PM MDT
Moon 11:29 AM MDT (6/14) 12:07 AM MDT (6/14)
Length of Visible Light 16h 47m
Length of Day
15h 33m
Waxing Crescent, 31% of the Moon is Illuminated
Jun 14
Waxing Crescent
Jun 16
First Quarter
Jun 23
Full
Jun 29
Last Quarter
Jul 8
New

Hourly Weather History & Observations

Time (MDT) Temp. Windchill Dew Point Humidity Pressure Visibility Wind Dir Wind Speed Gust Speed Precip Events Conditions
12:10 AM 39.2 °F 37.0 °F 33.8 °F 81% 30.12 in 10.0 mi WSW 3.5 mph - N/A   Clear
12:30 AM 37.4 °F 33.8 °F 33.8 °F 87% 30.11 in 10.0 mi NW 4.6 mph - N/A   Clear
12:50 AM 37.4 °F 34.9 °F 32.0 °F 81% 30.11 in 10.0 mi West 3.5 mph - N/A   Clear
1:10 AM 37.4 °F 33.8 °F 32.0 °F 81% 30.11 in 10.0 mi SSE 4.6 mph - N/A   Clear
1:30 AM 35.6 °F 31.7 °F 32.0 °F 87% 30.10 in 10.0 mi South 4.6 mph - N/A   Clear
1:50 AM 35.6 °F 32.8 °F 32.0 °F 87% 30.10 in 10.0 mi South 3.5 mph - N/A   Clear
2:10 AM 35.6 °F - 30.2 °F 81% 30.09 in 10.0 mi Calm Calm - N/A   Clear
2:30 AM 33.8 °F - 30.2 °F 87% 30.09 in 10.0 mi Calm Calm - N/A   Partly Cloudy
2:50 AM 32.0 °F - 28.4 °F 87% 30.08 in 10.0 mi Calm Calm - N/A   Partly Cloudy
3:10 AM 32.0 °F - 28.4 °F 87% 30.07 in 10.0 mi Calm Calm - N/A   Clear
3:30 AM 32.0 °F - 26.6 °F 80% 30.08 in 10.0 mi Calm Calm - N/A   Partly Cloudy
3:50 AM 32.0 °F - 26.6 °F 80% 30.08 in 10.0 mi Calm Calm - N/A   Partly Cloudy
4:10 AM 32.0 °F - 28.4 °F 87% 30.07 in 10.0 mi Calm Calm - N/A   Scattered Clouds
4:30 AM 33.8 °F - 30.2 °F 87% 30.08 in 10.0 mi Calm Calm - N/A   Scattered Clouds
4:50 AM 33.8 °F 28.6 °F 30.2 °F 87% 30.08 in 10.0 mi SSW 5.8 mph - N/A   Scattered Clouds
5:10 AM 33.8 °F - 30.2 °F 87% 30.08 in 10.0 mi Calm Calm - N/A   Mostly Cloudy
5:30 AM 33.8 °F - 30.2 °F 87% 30.09 in 10.0 mi Calm Calm - N/A   Mostly Cloudy
5:50 AM 35.6 °F 28.0 °F 32.0 °F 87% 30.11 in 10.0 mi SW 10.4 mph 16.1 mph N/A   Mostly Cloudy
6:10 AM 37.4 °F 32.8 °F 32.0 °F 81% 30.12 in 10.0 mi SSW 5.8 mph - N/A   Overcast
6:30 AM 37.4 °F 30.3 °F 32.0 °F 81% 30.12 in 10.0 mi SW 10.4 mph 16.1 mph N/A   Overcast
6:50 AM 37.4 °F 27.2 °F 32.0 °F 81% 30.12 in 10.0 mi SSW 19.6 mph 26.5 mph N/A   Overcast
7:10 AM 37.4 °F 27.2 °F 32.0 °F 81% 30.13 in 10.0 mi SW 19.6 mph 27.6 mph N/A   Overcast
7:30 AM 37.4 °F 27.5 °F 32.0 °F 81% 30.14 in 10.0 mi SW 18.4 mph 27.6 mph N/A   Overcast
7:50 AM 37.4 °F 27.8 °F 32.0 °F 81% 30.15 in 10.0 mi SW 17.3 mph 24.2 mph N/A   Overcast
8:10 AM 37.4 °F 28.2 °F 33.8 °F 87% 30.16 in 10.0 mi SW 16.1 mph 23.0 mph N/A   Overcast
8:30 AM 37.4 °F 29.3 °F 33.8 °F 87% 30.16 in 10.0 mi SW 12.7 mph 29.9 mph N/A   Overcast
8:50 AM 37.4 °F 28.5 °F 33.8 °F 87% 30.17 in 10.0 mi SW 15.0 mph 20.7 mph N/A   Overcast
9:10 AM 37.4 °F 28.2 °F 33.8 °F 87% 30.18 in 10.0 mi SW 16.1 mph 19.6 mph N/A   Overcast
9:30 AM 39.2 °F 31.2 °F 35.6 °F 87% 30.19 in 10.0 mi SSW 13.8 mph 20.7 mph N/A   Overcast
9:50 AM 39.2 °F 29.3 °F 35.6 °F 87% 30.19 in 10.0 mi SSW 20.7 mph 26.5 mph N/A   Overcast
10:10 AM 41.0 °F 32.2 °F 37.4 °F 87% 30.20 in 10.0 mi SW 18.4 mph 23.0 mph N/A   Overcast
10:30 AM 41.0 °F 34.3 °F 35.6 °F 81% 30.20 in 10.0 mi SSW 11.5 mph 24.2 mph N/A   Overcast
10:50 AM 42.8 °F 34.5 °F 37.4 °F 81% 30.20 in 10.0 mi SSW 18.4 mph 24.2 mph N/A   Overcast
11:10 AM 42.8 °F 34.0 °F 37.4 °F 81% 30.20 in 10.0 mi SSW 20.7 mph 26.5 mph N/A   Overcast
11:30 AM 42.8 °F 35.1 °F 37.4 °F 81% 30.19 in 10.0 mi SSW 16.1 mph 24.2 mph N/A   Overcast
11:50 AM 44.6 °F 36.4 °F 39.2 °F 81% 30.19 in 10.0 mi SSW 20.7 mph 28.8 mph N/A   Mostly Cloudy
12:10 PM 46.4 °F 39.5 °F 41.0 °F 81% 30.19 in 10.0 mi SSW 17.3 mph 25.3 mph N/A   Clear
12:30 PM 46.4 °F 39.0 °F 41.0 °F 81% 30.19 in 10.0 mi SW 19.6 mph 27.6 mph N/A   Clear
12:50 PM 48.2 °F - 44.6 °F 87% 30.19 in 10.0 mi WSW 16.1 mph 25.3 mph N/A   Clear
1:10 PM 42.8 °F 36.6 °F 39.2 °F 87% 30.20 in 7.0 mi SSW 11.5 mph 19.6 mph N/A Rain Light Rain
1:30 PM 44.6 °F 36.4 °F 39.2 °F 81% 30.21 in 9.0 mi SW 20.7 mph 26.5 mph N/A Rain Light Rain
1:50 PM 42.8 °F 36.6 °F 37.4 °F 81% 30.20 in 10.0 mi SSW 11.5 mph 17.3 mph N/A   Mostly Cloudy
2:10 PM 46.4 °F 40.7 °F 41.0 °F 81% 30.21 in 10.0 mi SSW 12.7 mph 18.4 mph N/A   Mostly Cloudy
2:30 PM 46.4 °F 39.5 °F 41.0 °F 81% 30.20 in 10.0 mi SSW 17.3 mph 25.3 mph N/A   Overcast
2:50 PM 46.4 °F 39.8 °F 42.8 °F 87% 30.19 in 10.0 mi SW 16.1 mph 23.0 mph N/A   Overcast
3:10 PM 42.8 °F 41.1 °F 39.2 °F 87% 30.21 in 10.0 mi WSW 3.5 mph - N/A Rain Light Rain
3:30 PM 42.8 °F 41.1 °F 39.2 °F 87% 30.21 in 7.0 mi SSW 3.5 mph - 0.01 in Rain Light Rain
3:50 PM 44.6 °F 40.7 °F 41.0 °F 87% 30.21 in 10.0 mi SW 6.9 mph - 0.01 in   Scattered Clouds
4:10 PM 46.4 °F 41.1 °F 41.0 °F 81% 30.20 in 10.0 mi SW 11.5 mph 17.3 mph N/A   Mostly Cloudy
4:30 PM 44.6 °F 41.4 °F 41.0 °F 87% 30.20 in 10.0 mi West 5.8 mph - N/A   Overcast
4:50 PM 44.6 °F 43.1 °F 39.2 °F 81% 30.21 in 10.0 mi WNW 3.5 mph - N/A Rain Light Rain
5:10 PM 44.6 °F 37.8 °F 39.2 °F 81% 30.22 in 10.0 mi WSW 15.0 mph 19.6 mph N/A   Mostly Cloudy
5:30 PM 39.2 °F 33.0 °F 35.6 °F 87% 30.23 in 3.0 mi WSW 9.2 mph - 0.01 in Rain Light Rain
5:50 PM 41.0 °F 39.0 °F 37.4 °F 87% 30.22 in 10.0 mi West 3.5 mph - 0.01 in   Mostly Cloudy
6:10 PM 41.0 °F - 37.4 °F 87% 30.22 in 8.0 mi Calm Calm - N/A Rain Light Rain
6:30 PM 41.0 °F 38.0 °F 37.4 °F 87% 30.24 in 10.0 mi West 4.6 mph - N/A   Mostly Cloudy
6:50 PM 39.2 °F 35.9 °F 35.6 °F 87% 30.24 in 7.0 mi SW 4.6 mph - 0.02 in Rain Light Rain
7:10 PM 41.0 °F 38.0 °F 35.6 °F 81% 30.24 in 10.0 mi SSE 4.6 mph - N/A   Overcast
7:30 PM 41.0 °F 35.8 °F 35.6 °F 81% 30.23 in 10.0 mi SE 8.1 mph - N/A   Overcast
7:50 PM 41.0 °F 36.4 °F 35.6 °F 81% 30.23 in 10.0 mi SE 6.9 mph - N/A   Overcast
8:10 PM 41.0 °F 37.1 °F 37.4 °F 87% 30.23 in 10.0 mi SE 5.8 mph - N/A   Overcast
8:30 PM 41.0 °F 38.0 °F 37.4 °F 87% 30.23 in 10.0 mi SE 4.6 mph - N/A   Overcast
8:50 PM 41.0 °F - 37.4 °F 87% 30.23 in 10.0 mi Calm Calm - N/A   Overcast
9:10 PM 41.0 °F 39.0 °F 37.4 °F 87% 30.23 in 10.0 mi SSW 3.5 mph - N/A   Mostly Cloudy
9:30 PM 39.2 °F - 35.6 °F 87% 30.24 in 10.0 mi Calm Calm - N/A   Mostly Cloudy
9:50 PM 37.4 °F - 33.8 °F 87% 30.24 in 10.0 mi Calm Calm - N/A   Mostly Cloudy
10:10 PM 37.4 °F 33.8 °F 32.0 °F 81% 30.25 in 10.0 mi ENE 4.6 mph - N/A   Mostly Cloudy
10:30 PM 37.4 °F - 32.0 °F 81% 30.25 in 10.0 mi Calm Calm - N/A   Partly Cloudy
10:50 PM 33.8 °F - 30.2 °F 87% 30.26 in 10.0 mi Calm Calm - N/A   Clear
11:10 PM 32.0 °F - 28.4 °F 87% 30.26 in 10.0 mi Calm Calm - N/A   Clear
11:30 PM 32.0 °F - 26.6 °F 80% 30.26 in 10.0 mi Calm Calm - N/A   Clear
11:50 PM 32.0 °F - 26.6 °F 80% 30.26 in 10.0 mi Calm Calm - N/A   Clear